Dades meteomassalio
Diari Summary for Noviembre 25, 2017 Units:  Metric    English   Both
« Previous Day
Next Day »
Diari Semanal Mensual Anual Personalitzat
  Maxima: Minima: Mijana:
Temperatura: -17.8 °C -15.9 °C -12.5 °C
Rosada: -17.8 °C -18.9 °C -16 °C
Humitat: Humidity % 55 % 65 %
Velocitat del vent: 0 km/h 0 km/h 35.7 km/h
Racha vent: 0 km/h - -
Vent:- - NW
Pressio: 0 hPa 34520.3 hPa -
Pluja: 0 mm    
Historical Graphs
 
 
Tabular Data for Noviembre 25, 2017
Time Temperature Dew Point Pressure Wind Wind Speed Wind Gust Humidity Rainfall Rate (Hourly) solar Conditions
-17.8 °C -17.8 °C 0 hPa Calm     Humidity % 0 mm SolarRadiationWatts/m^2 W/m2 Conditions
00:02 -14.7 °C -17 °C 34577.8 hPa Calm     75 % 0 mm 0.0 W/m2 CLR
00:07 -14.7 °C -17 °C 34577.8 hPa Calm     75 % 0 mm 0.0 W/m2 CLR
00:12 -14.7 °C -16.8 °C 34577.8 hPa Calm     76 % 0 mm 0.0 W/m2 CLR
00:17 -14.7 °C -16.8 °C 34577.8 hPa Calm     76 % 0 mm 0.0 W/m2 CLR
00:22 -14.7 °C -16.8 °C 34577.8 hPa Calm     76 % 0 mm 0.0 W/m2 CLR
00:23 -14.7 °C -16.8 °C 34577.8 hPa Calm     76 % 0 mm 0.0 W/m2 CLR
00:28 -14.7 °C -17.2 °C 34567.7 hPa Calm     73 % 0 mm 0.0 W/m2 CLR
00:33 -14.7 °C -17.1 °C 34567.7 hPa Calm     74 % 0 mm 0.0 W/m2 CLR
00:38 -14.7 °C -17.1 °C 34567.7 hPa Calm     74 % 0 mm 0.0 W/m2 CLR
00:43 -15 °C -17.3 °C 34567.7 hPa Calm     75 % 0 mm 0.0 W/m2 CLR
00:48 -15 °C -17.3 °C 34567.7 hPa Calm     75 % 0 mm 0.0 W/m2 CLR
00:53 -15 °C -17.3 °C 34567.7 hPa Calm     75 % 0 mm 0.0 W/m2 CLR
00:58 -15 °C -17.3 °C 34567.7 hPa Calm     75 % 0 mm 0.0 W/m2 CLR
01:03 -15 °C -17.3 °C 34567.7 hPa Calm     75 % 0 mm 0.0 W/m2 CLR
01:08 -15 °C -17.2 °C 34567.7 hPa Calm     76 % 0 mm 0.0 W/m2 CLR
01:13 -15 °C -17.1 °C 34567.7 hPa Calm     77 % 0 mm 0.0 W/m2 CLR
01:18 -15 °C -17.2 °C 34567.7 hPa Calm     76 % 0 mm 0.0 W/m2 CLR
01:23 -15 °C -17.2 °C 34554.1 hPa Calm     76 % 0 mm 0.0 W/m2 CLR
01:28 -15 °C -17.2 °C 34554.1 hPa Calm     76 % 0 mm 0.0 W/m2 CLR
01:33 -15 °C -17.2 °C 34554.1 hPa Calm     76 % 0 mm 0.0 W/m2 CLR
01:38 -15 °C -17.2 °C 34554.1 hPa Calm     76 % 0 mm 0.0 W/m2 CLR
01:43 -15 °C -17.2 °C 34554.1 hPa Calm     76 % 0 mm 0.0 W/m2 CLR
01:48 -15.3 °C -17.6 °C 34554.1 hPa Calm     75 % 0 mm 0.0 W/m2 CLR
01:53 -15 °C -17.3 °C 34554.1 hPa Calm     75 % 0 mm 0.0 W/m2 CLR
01:58 -15.3 °C -17.7 °C 34554.1 hPa Calm     74 % 0 mm 0.0 W/m2 CLR
02:03 -15.3 °C -17.8 °C 34554.1 hPa Calm     73 % 0 mm 0.0 W/m2 CLR
02:08 -15.3 °C -17.9 °C 34544 hPa Calm     72 % 0 mm 0.0 W/m2 CLR
02:13 -15.3 °C -17.9 °C 34544 hPa Calm     72 % 0 mm 0.0 W/m2 CLR
02:18 -15.3 °C -17.9 °C 34554.1 hPa Calm     72 % 0 mm 0.0 W/m2 CLR
02:23 -15.3 °C -17.9 °C 34544 hPa Calm     72 % 0 mm 0.0 W/m2 CLR
02:28 -15 °C -17.7 °C 34544 hPa Calm     71 % 0 mm 0.0 W/m2 CLR
02:33 -15 °C -17.8 °C 34544 hPa Calm     70 % 0 mm 0.0 W/m2 CLR
02:38 -15.3 °C -17.9 °C 34544 hPa Calm     71 % 0 mm 0.0 W/m2 CLR
02:43 -15.3 °C -17.8 °C 34544 hPa Calm     73 % 0 mm 0.0 W/m2 CLR
02:48 -15.6 °C -17.9 °C 34544 hPa Calm     74 % 0 mm 0.0 W/m2 CLR
02:53 -15.3 °C -17.6 °C 34544 hPa Calm     75 % 0 mm 0.0 W/m2 CLR
02:58 -15.3 °C -17.6 °C 34544 hPa Calm     75 % 0 mm 0.0 W/m2 CLR
03:03 -15.3 °C -17.6 °C 34544 hPa Calm     75 % 0 mm 0.0 W/m2 CLR
03:08 -15.3 °C -17.4 °C 34533.8 hPa Calm     76 % 0 mm 0.0 W/m2 CLR
03:13 -15.3 °C -17.6 °C 34544 hPa Calm     75 % 0 mm 0.0 W/m2 CLR
03:18 -15.6 °C -17.9 °C 34533.8 hPa Calm     74 % 0 mm 0.0 W/m2 CLR
03:23 -15.3 °C -17.6 °C 34533.8 hPa Calm     75 % 0 mm 0.0 W/m2 CLR
03:28 -15.6 °C -17.9 °C 34533.8 hPa Calm     74 % 0 mm 0.0 W/m2 CLR
03:33 -15.6 °C -17.9 °C 34533.8 hPa Calm     75 % 0 mm 0.0 W/m2 CLR
03:38 -15.3 °C -17.6 °C 34533.8 hPa Calm     75 % 0 mm 0.0 W/m2 CLR
03:48 -15.3 °C -17.9 °C 34533.8 hPa Calm     72 % 0 mm 0.0 W/m2 CLR
03:53 -15.3 °C -17.9 °C 34533.8 hPa Calm     71 % 0 mm 0.0 W/m2 CLR
03:58 -15 °C -18 °C 34533.8 hPa Calm     68 % 0 mm 0.0 W/m2 CLR
04:03 -15 °C -18.1 °C 34533.8 hPa Calm     67 % 0 mm 0.0 W/m2 CLR
04:08 -15.3 °C -18.4 °C 34533.8 hPa Calm     67 % 0 mm 0.0 W/m2 CLR
04:14 -15.3 °C -18.4 °C 34533.8 hPa Calm     67 % 0 mm 0.0 W/m2 CLR
04:19 -15.6 °C -18.6 °C 34533.8 hPa Calm     68 % 0 mm 0.0 W/m2 CLR
04:21 -15.6 °C -18.6 °C 34533.8 hPa Calm     68 % 0 mm 0.0 W/m2 CLR
04:23 -15.3 °C -18.3 °C 34533.8 hPa Calm     68 % 0 mm 0.0 W/m2 CLR
04:25 -15.3 °C -18.3 °C 34533.8 hPa Calm     68 % 0 mm 0.0 W/m2 CLR
04:26 -15.3 °C -18.3 °C 34533.8 hPa Calm     68 % 0 mm 0.0 W/m2 CLR
04:31 -15.3 °C -18.3 °C 34533.8 hPa Calm     68 % 0 mm 0.0 W/m2 CLR
04:36 -15.3 °C -18.4 °C 34533.8 hPa Calm     67 % 0 mm 0.0 W/m2 CLR
04:41 -15.6 °C -18.7 °C 34533.8 hPa Calm     67 % 0 mm 0.0 W/m2 CLR
04:43 -15.6 °C -18.7 °C 34533.8 hPa Calm     67 % 0 mm 0.0 W/m2 CLR
04:48 -15.6 °C -18.6 °C 34533.8 hPa Calm     68 % 0 mm 0.0 W/m2 CLR
04:53 -15.6 °C -18.6 °C 34533.8 hPa Calm     68 % 0 mm 0.0 W/m2 CLR
05:03 -15.3 °C -18.3 °C 34520.3 hPa Calm     68 % 0 mm 0.0 W/m2 CLR
05:08 -15.3 °C -18.3 °C 34520.3 hPa Calm     68 % 0 mm 0.0 W/m2 CLR
05:13 -15.3 °C -18.4 °C 34520.3 hPa Calm     67 % 0 mm 0.0 W/m2 CLR
05:18 -15.6 °C -18.5 °C 34520.3 hPa Calm     69 % 0 mm 0.0 W/m2 CLR
05:23 -15.6 °C -18.4 °C 34520.3 hPa Calm     70 % 0 mm 0.0 W/m2 CLR
05:33 -15.6 °C -18.3 °C 34520.3 hPa Calm     71 % 0 mm 0.0 W/m2 CLR
05:38 -15.3 °C -17.9 °C 34520.3 hPa Calm     71 % 0 mm 0.0 W/m2 CLR
05:43 -15.6 °C -18.4 °C 34520.3 hPa Calm     70 % 0 mm 0.0 W/m2 CLR
05:48 -15.6 °C -18.5 °C 34520.3 hPa Calm     69 % 0 mm 0.0 W/m2 CLR
05:53 -15.6 °C -18.5 °C 34520.3 hPa Calm     69 % 0 mm 0.0 W/m2 CLR
05:58 -15.6 °C -18.4 °C 34520.3 hPa Calm     70 % 0 mm 0.0 W/m2 CLR
06:03 -15.3 °C -18.2 °C 34520.3 hPa Calm     69 % 0 mm 0.0 W/m2 CLR
06:08 -15.3 °C -18.2 °C 34520.3 hPa Calm     69 % 0 mm 0.0 W/m2 CLR
06:13 -15.6 °C -18.5 °C 34520.3 hPa Calm     69 % 0 mm 0.0 W/m2 CLR
06:18 -15.6 °C -18.4 °C 34520.3 hPa Calm     70 % 0 mm 0.0 W/m2 CLR
06:23 -15.6 °C -18.5 °C 34520.3 hPa Calm     69 % 0 mm 0.0 W/m2 CLR
06:28 -15.6 °C -18.5 °C 34520.3 hPa Calm     69 % 0 mm 0.0 W/m2 CLR
06:33 -15.6 °C -18.5 °C 34533.8 hPa Calm     69 % 0 mm 0.0 W/m2 CLR
06:38 -15.3 °C -18.2 °C 34533.8 hPa Calm     69 % 0 mm 0.0 W/m2 CLR
06:43 -15.3 °C -18.2 °C 34533.8 hPa Calm     69 % 0 mm 0.0 W/m2 CLR
06:48 -15.3 °C -18.3 °C 34520.3 hPa Calm     68 % 0 mm 0.0 W/m2 CLR
06:53 -15.3 °C -18.3 °C 34533.8 hPa Calm     68 % 0 mm 0.0 W/m2 CLR
06:58 -15.3 °C -18.3 °C 34520.3 hPa Calm     68 % 0 mm 0.0 W/m2 CLR
07:03 -15.3 °C -18.3 °C 34520.3 hPa Calm     68 % 0 mm 0.0 W/m2 CLR
07:08 -15.3 °C -18.2 °C 34520.3 hPa Calm     69 % 0 mm 0.0 W/m2 CLR
07:13 -15.3 °C -18.1 °C 34520.3 hPa Calm     70 % 0 mm 0.0 W/m2 CLR
07:18 -15.3 °C -18.1 °C 34533.8 hPa Calm     70 % 0 mm 0.0 W/m2 CLR
07:23 -15.3 °C -18.1 °C 34533.8 hPa Calm     70 % 0 mm 0.0 W/m2 CLR
07:28 -15.6 °C -18.5 °C 34533.8 hPa Calm     69 % 0 mm 0.0 W/m2 CLR
07:33 -15.6 °C -18.6 °C 34533.8 hPa Calm     68 % 0 mm 0.0 W/m2 CLR
07:38 -15.6 °C -18.6 °C 34533.8 hPa Calm     68 % 0 mm 0.0 W/m2 CLR
07:43 -15.6 °C -18.6 °C 34533.8 hPa Calm     68 % 0 mm 0.0 W/m2 CLR
07:48 -15.9 °C -18.9 °C 34533.8 hPa Calm     68 % 0 mm 0.0 W/m2 OVC
07:53 -15.9 °C -18.9 °C 34544 hPa Calm     68 % 0 mm 0.0 W/m2 OVC
07:58 -15.9 °C -18.8 °C 34544 hPa Calm     69 % 0 mm 0.0 W/m2 OVC
08:03 -15.6 °C -18.5 °C 34554.1 hPa North 23.8 km/h 23.8 km/h 69 % 0 mm 0.0 W/m2 OVC
08:09 -15.3 °C -17.8 °C 34554.1 hPa NNW 44.7 km/h 44.7 km/h 73 % 0 mm 0.0 W/m2 OVC
08:14 -15.3 °C -17.9 °C 34554.1 hPa North 44.7 km/h 44.7 km/h 71 % 0 mm 5.0 W/m2 OVC
08:19 -14.7 °C -17.6 °C 34567.7 hPa NNW 41.7 km/h 41.7 km/h 69 % 0 mm 5.0 W/m2 OVC
08:24 -13.2 °C -16.2 °C 34567.7 hPa WNW 41.7 km/h 41.7 km/h 68 % 0 mm 7.0 W/m2 BKN
08:29 -12.2 °C -15.2 °C 34567.7 hPa NW 29.8 km/h 29.8 km/h 69 % 0 mm 11.0 W/m2 BKN
08:34 -11.9 °C -14.7 °C 34567.7 hPa NNW 33.6 km/h 33.6 km/h 71 % 0 mm 12.0 W/m2 BKN
08:39 -11.6 °C -14.2 °C 34567.7 hPa NW 29.8 km/h 29.8 km/h 73 % 0 mm 14.0 W/m2 BKN
08:44 -11.6 °C -14.1 °C 34577.8 hPa NW 29.8 km/h 29.8 km/h 74 % 0 mm 16.0 W/m2 BKN
08:49 -11.6 °C -14 °C 34577.8 hPa NNW 28.5 km/h 28.5 km/h 75 % 0 mm 18.0 W/m2 BKN
08:54 -11.6 °C -13.8 °C 34577.8 hPa NW 29.8 km/h 29.8 km/h 76 % 0 mm 19.0 W/m2 BKN
08:59 -11.6 °C -13.8 °C 34591.4 hPa NW 15 km/h 15 km/h 77 % 0 mm 19.0 W/m2 BKN
09:04 -11.6 °C -13.8 °C 34591.4 hPa NW 26.9 km/h 26.9 km/h 77 % 0 mm 19.0 W/m2 BKN
09:09 -11.6 °C -13.8 °C 34591.4 hPa NW 23.8 km/h 23.8 km/h 77 % 0 mm 26.0 W/m2 BKN
09:14 -11.6 °C -13.8 °C 34591.4 hPa WNW 23.8 km/h 23.8 km/h 77 % 0 mm 47.0 W/m2 BKN
09:19 -11.6 °C -13.8 °C 34591.4 hPa NW 35.7 km/h 35.7 km/h 77 % 0 mm 67.0 W/m2 SCT
09:24 -11.3 °C -13.6 °C 34601.5 hPa NW 32.8 km/h 32.8 km/h 76 % 0 mm 105.0 W/m2 FEW
09:29 -11 °C -13.4 °C 34601.5 hPa WNW 29.8 km/h 29.8 km/h 75 % 0 mm 165.0 W/m2 CLR
09:34 -10.7 °C -13.1 °C 34611.7 hPa NW 35.7 km/h 35.7 km/h 75 % 0 mm 207.0 W/m2 CLR
09:39 -10.7 °C -13.2 °C 34611.7 hPa NNW 29.8 km/h 29.8 km/h 74 % 0 mm 192.0 W/m2 CLR
09:44 -10.4 °C -13 °C 34611.7 hPa NNW 26.9 km/h 26.9 km/h 73 % 0 mm 262.0 W/m2 CLR
09:49 -10.1 °C -12.8 °C 34611.7 hPa NW 35.7 km/h 35.7 km/h 72 % 0 mm 323.0 W/m2 CLR
09:51 -10.1 °C -12.8 °C 34611.7 hPa NNW 29.8 km/h 29.8 km/h 72 % 0 mm 318.0 W/m2 CLR
09:56 -9.8 °C -12.7 °C 34611.7 hPa NW 35.7 km/h 35.7 km/h 71 % 0 mm 311.0 W/m2 CLR
10:01 -9.8 °C -12.7 °C 34611.7 hPa NNW 44.7 km/h 44.7 km/h 70 % 0 mm 118.0 W/m2 CLR
10:06 -10.1 °C -12.9 °C 34611.7 hPa NNW 47.6 km/h 47.6 km/h 71 % 0 mm 93.0 W/m2 CLR
10:11 -10.1 °C -12.8 °C 34611.7 hPa NNW 44.7 km/h 44.7 km/h 72 % 0 mm 155.0 W/m2 CLR
10:16 -10.1 °C -12.8 °C 34611.7 hPa NW 53.6 km/h 53.6 km/h 72 % 0 mm 200.0 W/m2 CLR
10:21 -10.1 °C -12.9 °C 34611.7 hPa NW 50.7 km/h 50.7 km/h 71 % 0 mm 348.0 W/m2 CLR
10:26 -9.8 °C -12.7 °C 34611.7 hPa North 38.8 km/h 38.8 km/h 70 % 0 mm 246.0 W/m2 CLR
10:31 -9.8 °C -12.7 °C 34625.2 hPa NNW 29.8 km/h 29.8 km/h 70 % 0 mm 209.0 W/m2 CLR
10:36 -9.8 °C -12.9 °C 34625.2 hPa NNW 44.1 km/h 44.1 km/h 69 % 0 mm 232.0 W/m2 CLR
10:41 -9.8 °C -12.9 °C 34625.2 hPa NNW 38.8 km/h 38.8 km/h 69 % 0 mm 288.0 W/m2 CLR
10:46 -9.4 °C -12.7 °C 34625.2 hPa NNW 44.7 km/h 44.7 km/h 68 % 0 mm 352.0 W/m2 CLR
10:51 -9.4 °C -12.8 °C 34625.2 hPa NNW 68.6 km/h 68.6 km/h 67 % 0 mm 309.0 W/m2 CLR
10:56 -9.4 °C -12.7 °C 34625.2 hPa NW 50.7 km/h 50.7 km/h 68 % 0 mm 503.0 W/m2 CLR
11:01 -9.1 °C -12.7 °C 34625.2 hPa NNW 56.6 km/h 56.6 km/h 66 % 0 mm 515.0 W/m2 CLR
11:06 -9.4 °C -12.9 °C 34625.2 hPa NW 59.5 km/h 59.5 km/h 66 % 0 mm 490.0 W/m2 CLR
11:11 -9.4 °C -12.9 °C 34625.2 hPa North 68.6 km/h 68.6 km/h 66 % 0 mm 439.0 W/m2 CLR
11:16 -9.1 °C -12.7 °C 34625.2 hPa North 72.6 km/h 72.6 km/h 66 % 0 mm 605.0 W/m2 CLR
11:22 -9.1 °C -12.8 °C 34625.2 hPa NNW 68.6 km/h 68.6 km/h 65 % 0 mm 619.0 W/m2 CLR
11:30 -8.8 °C -12.5 °C 34611.7 hPa NW 68.6 km/h 68.6 km/h 65 % 0 mm 564.0 W/m2 CLR
11:35 -8.8 °C -12.6 °C 34611.7 hPa NW 59.5 km/h 59.5 km/h 64 % 0 mm 510.0 W/m2 CLR
11:40 -8.8 °C -12.7 °C 34611.7 hPa NW 85.5 km/h 85.5 km/h 63 % 0 mm 536.0 W/m2 CLR
11:45 -8.8 °C -12.9 °C 34611.7 hPa NNW 50.7 km/h 50.7 km/h 62 % 0 mm 478.0 W/m2 CLR
11:50 -8.8 °C -13 °C 34611.7 hPa NW 65.5 km/h 65.5 km/h 61 % 0 mm 578.0 W/m2 CLR
11:55 -8.5 °C -13 °C 34611.7 hPa NNW 53.6 km/h 53.6 km/h 59 % 0 mm 577.0 W/m2 CLR
12:00 -8.5 °C -13.2 °C 34611.7 hPa NW 65.5 km/h 65.5 km/h 58 % 0 mm 473.0 W/m2 CLR
12:05 -8.8 °C -13.2 °C 34611.7 hPa NNW 77.4 km/h 77.4 km/h 60 % 0 mm 260.0 W/m2 CLR
12:10 -8.8 °C -13 °C 34601.5 hPa NW 69.8 km/h 69.8 km/h 61 % 0 mm 510.0 W/m2 CLR
12:15 -8.8 °C -13 °C 34601.5 hPa NNW 68.6 km/h 68.6 km/h 61 % 0 mm 496.0 W/m2 CLR
12:20 -8.8 °C -13 °C 34601.5 hPa NW 64.7 km/h 64.7 km/h 61 % 0 mm 388.0 W/m2 CLR
12:25 -8.8 °C -13.3 °C 34601.5 hPa NNW 74.5 km/h 74.5 km/h 59 % 0 mm 469.0 W/m2 CLR
12:30 -8.8 °C -13.3 °C 34601.5 hPa NW 68.6 km/h 68.6 km/h 59 % 0 mm 468.0 W/m2 CLR
12:35 -8.8 °C -13.3 °C 34601.5 hPa NW 65.5 km/h 65.5 km/h 59 % 0 mm 468.0 W/m2 CLR
12:40 -8.8 °C -13.4 °C 34601.5 hPa NNW 71.5 km/h 71.5 km/h 58 % 0 mm 462.0 W/m2 CLR
12:45 -9.1 °C -13.7 °C 34591.4 hPa NNW 59.5 km/h 59.5 km/h 58 % 0 mm 468.0 W/m2 CLR
12:50 -8.8 °C -13.4 °C 34591.4 hPa NW 80.5 km/h 80.5 km/h 58 % 0 mm 492.0 W/m2 CLR
12:55 -8.8 °C -13.3 °C 34601.5 hPa NNW 71.5 km/h 71.5 km/h 59 % 0 mm 480.0 W/m2 CLR
13:00 -8.8 °C -13.4 °C 34591.4 hPa NW 64.7 km/h 64.7 km/h 58 % 0 mm 487.0 W/m2 CLR
13:05 -8.8 °C -13.6 °C 34601.5 hPa NW 71.5 km/h 71.5 km/h 57 % 0 mm 529.0 W/m2 CLR
13:10 -8.5 °C -13.3 °C 34601.5 hPa NNW 62.6 km/h 62.6 km/h 57 % 0 mm 218.0 W/m2 CLR
13:15 -8.8 °C -13.4 °C 34601.5 hPa NW 65.5 km/h 65.5 km/h 58 % 0 mm 281.0 W/m2 CLR
13:20 -8.8 °C -13.4 °C 34601.5 hPa NNW 65.5 km/h 65.5 km/h 58 % 0 mm 455.0 W/m2 CLR
13:25 -8.8 °C -13.6 °C 34601.5 hPa North 56.6 km/h 56.6 km/h 57 % 0 mm 439.0 W/m2 CLR
13:26 -8.8 °C -13.6 °C 34601.5 hPa North 69.8 km/h 69.8 km/h 57 % 0 mm 520.0 W/m2 CLR
13:31 -8.8 °C -13.6 °C 34601.5 hPa North 59.5 km/h 59.5 km/h 57 % 0 mm 213.0 W/m2 CLR
13:36 -9.1 °C -13.7 °C 34601.5 hPa NNW 74.5 km/h 74.5 km/h 58 % 0 mm 220.0 W/m2 CLR
13:41 -9.1 °C -13.7 °C 34611.7 hPa North 65.5 km/h 65.5 km/h 58 % 0 mm 218.0 W/m2 CLR
13:46 -9.4 °C -13.8 °C 34601.5 hPa NW 54.4 km/h 54.4 km/h 59 % 0 mm 536.0 W/m2 CLR
13:51 -9.1 °C -13.7 °C 34611.7 hPa NNW 47.6 km/h 47.6 km/h 58 % 0 mm 123.0 W/m2 CLR
13:56 -9.4 °C -13.8 °C 34611.7 hPa North 65.5 km/h 65.5 km/h 59 % 0 mm 125.0 W/m2 CLR
14:01 -9.8 °C -14.2 °C 34611.7 hPa NNW 51.8 km/h 51.8 km/h 59 % 0 mm 97.0 W/m2 CLR
14:06 -9.8 °C -14 °C 34625.2 hPa NNW 41.7 km/h 41.7 km/h 60 % 0 mm 132.0 W/m2 CLR
14:11 -9.8 °C -14 °C 34625.2 hPa North 74.5 km/h 74.5 km/h 60 % 0 mm 146.0 W/m2 CLR
14:16 -9.8 °C -14 °C 34625.2 hPa WNW 65.5 km/h 65.5 km/h 60 % 0 mm 153.0 W/m2 CLR
14:21 -9.8 °C -13.9 °C 34625.2 hPa NW 62.6 km/h 62.6 km/h 61 % 0 mm 167.0 W/m2 CLR
14:26 -9.8 °C -14 °C 34625.2 hPa NW 59.5 km/h 59.5 km/h 60 % 0 mm 155.0 W/m2 CLR
14:32 -9.8 °C -14 °C 34625.2 hPa NNW 68.6 km/h 68.6 km/h 60 % 0 mm 113.0 W/m2 CLR
14:37 -9.8 °C -14 °C 34625.2 hPa NW 50.7 km/h 50.7 km/h 60 % 0 mm 104.0 W/m2 CLR
14:42 -9.8 °C -13.9 °C 34635.4 hPa NNW 50.7 km/h 50.7 km/h 61 % 0 mm 109.0 W/m2 CLR
14:47 -10.1 °C -14.1 °C 34625.2 hPa NNW 62.6 km/h 62.6 km/h 62 % 0 mm 118.0 W/m2 CLR
14:52 -10.1 °C -14.2 °C 34635.4 hPa NNW 65.5 km/h 65.5 km/h 61 % 0 mm 118.0 W/m2 CLR
14:57 -9.8 °C -13.9 °C 34635.4 hPa NW 53.6 km/h 53.6 km/h 61 % 0 mm 127.0 W/m2 CLR
15:02 -9.8 °C -14 °C 34635.4 hPa NNW 57 km/h 57 km/h 60 % 0 mm 114.0 W/m2 CLR
15:07 -9.8 °C -13.9 °C 34635.4 hPa NW 44.7 km/h 44.7 km/h 61 % 0 mm 127.0 W/m2 CLR
15:12 -9.8 °C -14 °C 34635.4 hPa NNW 65.5 km/h 65.5 km/h 60 % 0 mm 146.0 W/m2 CLR
15:17 -9.8 °C -14 °C 34635.4 hPa NNW 68.6 km/h 68.6 km/h 60 % 0 mm 139.0 W/m2 CLR
15:22 -9.8 °C -14 °C 34635.4 hPa North 77.4 km/h 77.4 km/h 60 % 0 mm 149.0 W/m2 CLR
15:27 -9.8 °C -13.9 °C 34645.6 hPa NNW 53.6 km/h 53.6 km/h 61 % 0 mm 165.0 W/m2 CLR
15:32 -9.8 °C -13.9 °C 34645.6 hPa NNW 77.4 km/h 77.4 km/h 61 % 0 mm 172.0 W/m2 CLR
15:33 -9.8 °C -13.9 °C 34645.6 hPa NNW 68.6 km/h 68.6 km/h 61 % 0 mm 172.0 W/m2 CLR
15:38 -9.8 °C -13.9 °C 34645.6 hPa NNW 62.6 km/h 62.6 km/h 61 % 0 mm 132.0 W/m2 CLR
15:43 -9.8 °C -13.9 °C 34645.6 hPa NNW 62.6 km/h 62.6 km/h 61 % 0 mm 125.0 W/m2 CLR
15:48 -10.1 °C -14.2 °C 34645.6 hPa NNW 68.6 km/h 68.6 km/h 61 % 0 mm 113.0 W/m2 CLR
15:58 -10.1 °C -14.2 °C 34645.6 hPa NW 50.7 km/h 50.7 km/h 61 % 0 mm 65.0 W/m2 FEW
16:03 -10.1 °C -14.2 °C 34659.1 hPa North 50.7 km/h 50.7 km/h 61 % 0 mm 70.0 W/m2 FEW
16:08 -10.1 °C -14.2 °C 34659.1 hPa NW 50.7 km/h 50.7 km/h 61 % 0 mm 77.0 W/m2 FEW
16:13 -10.1 °C -14.3 °C 34669.3 hPa North 56.6 km/h 56.6 km/h 60 % 0 mm 77.0 W/m2 FEW
16:18 -10.1 °C -14.3 °C 34669.3 hPa North 62.6 km/h 62.6 km/h 60 % 0 mm 72.0 W/m2 FEW
16:23 -10.1 °C -14.3 °C 34669.3 hPa NNW 68.6 km/h 68.6 km/h 60 % 0 mm 63.0 W/m2 FEW
16:28 -10.4 °C -14.7 °C 34669.3 hPa NNW 68.6 km/h 68.6 km/h 59 % 0 mm 56.0 W/m2 SCT
16:33 -10.4 °C -14.7 °C 34659.1 hPa NNW 50.7 km/h 50.7 km/h 59 % 0 mm 51.0 W/m2 SCT
16:38 -10.4 °C -14.7 °C 34659.1 hPa North 38.8 km/h 38.8 km/h 59 % 0 mm 46.0 W/m2 SCT
16:43 -10.4 °C -14.9 °C 34669.3 hPa North 56.6 km/h 56.6 km/h 58 % 0 mm 42.0 W/m2 BKN
16:48 -10.4 °C -14.9 °C 34669.3 hPa NNW 50.7 km/h 50.7 km/h 58 % 0 mm 32.0 W/m2 BKN
16:53 -10.4 °C -14.9 °C 34669.3 hPa NNW 50.7 km/h 50.7 km/h 58 % 0 mm 40.0 W/m2 BKN
16:58 -10.4 °C -15 °C 34682.8 hPa NNW 56.6 km/h 56.6 km/h 57 % 0 mm 39.0 W/m2 BKN
17:03 -10.4 °C -15 °C 34682.8 hPa NW 50.7 km/h 50.7 km/h 57 % 0 mm 35.0 W/m2 BKN
17:08 -10.7 °C -15.2 °C 34693 hPa North 35.7 km/h 35.7 km/h 58 % 0 mm 28.0 W/m2 BKN
17:13 -10.7 °C -15.2 °C 34693 hPa NNW 59.5 km/h 59.5 km/h 58 % 0 mm 16.0 W/m2 BKN
17:18 -10.7 °C -15.2 °C 34693 hPa NW 50.7 km/h 50.7 km/h 58 % 0 mm 9.0 W/m2 BKN
17:23 -10.7 °C -15.2 °C 34693 hPa NNW 56.6 km/h 56.6 km/h 58 % 0 mm 5.0 W/m2 OVC
17:28 -10.7 °C -15.3 °C 34693 hPa NNW 65.5 km/h 65.5 km/h 57 % 0 mm 0.0 W/m2 OVC
17:33 -10.7 °C -15.4 °C 34693 hPa NNW 56.6 km/h 56.6 km/h 56 % 0 mm 0.0 W/m2 OVC
17:38 -10.7 °C -15.4 °C 34693 hPa NNW 53.6 km/h 53.6 km/h 56 % 0 mm 0.0 W/m2 OVC
17:43 -11 °C -15.9 °C 34693 hPa NNW 53.6 km/h 53.6 km/h 55 % 0 mm 0.0 W/m2 OVC
17:48 -11 °C -15.7 °C 34693 hPa NNW 65.5 km/h 65.5 km/h 56 % 0 mm 0.0 W/m2 CLR
17:53 -11 °C -15.7 °C 34703.1 hPa WNW 50.7 km/h 50.7 km/h 56 % 0 mm 0.0 W/m2 CLR
18:03 -11.3 °C -16 °C 34703.1 hPa WNW 35.7 km/h 35.7 km/h 56 % 0 mm 0.0 W/m2 CLR
18:08 -11.3 °C -16 °C 34703.1 hPa North 50.7 km/h 50.7 km/h 56 % 0 mm 0.0 W/m2 CLR
18:13 -11.3 °C -15.9 °C 34716.7 hPa NW 56.6 km/h 56.6 km/h 57 % 0 mm 0.0 W/m2 CLR
18:18 -11.3 °C -15.9 °C 34716.7 hPa NW 65.5 km/h 65.5 km/h 57 % 0 mm 0.0 W/m2 CLR
18:19 -11.3 °C -15.9 °C 34716.7 hPa WNW 65.5 km/h 65.5 km/h 57 % 0 mm 0.0 W/m2 CLR
18:24 -11.6 °C -16 °C 34716.7 hPa NW 49.2 km/h 49.2 km/h 58 % 0 mm 0.0 W/m2 CLR
18:29 -11.6 °C -16 °C 34716.7 hPa NW 53.6 km/h 53.6 km/h 58 % 0 mm 0.0 W/m2 CLR
18:34 -11.6 °C -15.9 °C 34726.8 hPa NNW 49.2 km/h 50.7 km/h 59 % 0 mm 0.0 W/m2 CLR
18:35 -11.6 °C -15.9 °C 34716.7 hPa NW 68.6 km/h 68.6 km/h 59 % 0 mm 0.0 W/m2 CLR
18:40 -11.6 °C -15.9 °C 34726.8 hPa NW 50.7 km/h 50.7 km/h 59 % 0 mm 0.0 W/m2 CLR
18:45 -11.6 °C -15.9 °C 34726.8 hPa NNW 44.1 km/h 44.1 km/h 59 % 0 mm 0.0 W/m2 CLR
18:50 -11.6 °C -15.9 °C 34726.8 hPa NNW 65.5 km/h 65.5 km/h 59 % 0 mm 0.0 W/m2 CLR
18:55 -11.6 °C -15.9 °C 34726.8 hPa NW 62.1 km/h 62.1 km/h 59 % 0 mm 0.0 W/m2 CLR
19:00 -11.6 °C -15.9 °C 34740.4 hPa NNW 74.5 km/h 74.5 km/h 59 % 0 mm 0.0 W/m2 CLR
19:05 -11.9 °C -16.2 °C 34740.4 hPa NNW 71.5 km/h 71.5 km/h 59 % 0 mm 0.0 W/m2 CLR
19:10 -11.9 °C -16.1 °C 34740.4 hPa NNW 62.6 km/h 62.6 km/h 60 % 0 mm 0.0 W/m2 CLR
19:15 -11.9 °C -16.1 °C 34740.4 hPa NW 71.5 km/h 71.5 km/h 60 % 0 mm 0.0 W/m2 CLR
19:20 -11.9 °C -16.1 °C 34750.5 hPa NNW 59.5 km/h 59.5 km/h 60 % 0 mm 0.0 W/m2 CLR
19:25 -11.9 °C -16.1 °C 34750.5 hPa North 49.2 km/h 49.2 km/h 60 % 0 mm 0.0 W/m2 CLR
19:30 -12.2 °C -16.3 °C 34750.5 hPa NW 68.6 km/h 68.6 km/h 60 % 0 mm 0.0 W/m2 CLR
19:35 -12.2 °C -16.3 °C 34760.7 hPa NNW 50.7 km/h 50.7 km/h 60 % 0 mm 0.0 W/m2 CLR
19:40 -12.2 °C -16.3 °C 34760.7 hPa NW 62.6 km/h 62.6 km/h 60 % 0 mm 0.0 W/m2 CLR
19:45 -12.2 °C -16.3 °C 34760.7 hPa NW 54.4 km/h 54.4 km/h 60 % 0 mm 0.0 W/m2 CLR
19:50 -12.2 °C -16.3 °C 34760.7 hPa NW 50.7 km/h 50.7 km/h 60 % 0 mm 0.0 W/m2 CLR
19:55 -12.6 °C -16.6 °C 34760.7 hPa NW 49.2 km/h 49.2 km/h 60 % 0 mm 0.0 W/m2 CLR
20:00 -12.6 °C -16.5 °C 34760.7 hPa NW 69.8 km/h 69.8 km/h 61 % 0 mm 0.0 W/m2 CLR
20:05 -12.6 °C -16.5 °C 34760.7 hPa NW 59.5 km/h 59.5 km/h 61 % 0 mm 0.0 W/m2 CLR
20:10 -12.6 °C -16.4 °C 34750.5 hPa NW 56.6 km/h 56.6 km/h 62 % 0 mm 0.0 W/m2 CLR
20:15 -12.6 °C -16.4 °C 34750.5 hPa NW 68.6 km/h 68.6 km/h 62 % 0 mm 0.0 W/m2 CLR
20:20 -12.6 °C -16.4 °C 34760.7 hPa NW 67.3 km/h 67.3 km/h 62 % 0 mm 0.0 W/m2 CLR
20:25 -12.6 °C -16.3 °C 34760.7 hPa NW 59.5 km/h 59.5 km/h 63 % 0 mm 0.0 W/m2 CLR
20:30 -12.8 °C -16.6 °C 34774.2 hPa NNW 65.5 km/h 65.5 km/h 63 % 0 mm 0.0 W/m2 CLR
20:35 -12.8 °C -16.6 °C 34774.2 hPa NW 51.8 km/h 51.8 km/h 63 % 0 mm 0.0 W/m2 CLR
20:40 -12.8 °C -16.6 °C 34774.2 hPa NNW 62.6 km/h 62.6 km/h 63 % 0 mm 0.0 W/m2 CLR
20:45 -12.8 °C -16.4 °C 34774.2 hPa NW 56.6 km/h 56.6 km/h 64 % 0 mm 0.0 W/m2 CLR
20:50 -12.8 °C -16.6 °C 34774.2 hPa NW 50.7 km/h 50.7 km/h 63 % 0 mm 0.0 W/m2 CLR
20:51 -12.8 °C -16.6 °C 34774.2 hPa NW 50.7 km/h 50.7 km/h 63 % 0 mm 0.0 W/m2 CLR
20:56 -12.8 °C -16.6 °C 34784.4 hPa North 50.7 km/h 50.7 km/h 63 % 0 mm 0.0 W/m2 CLR
21:01 -12.8 °C -16.7 °C 34774.2 hPa NW 41.7 km/h 41.7 km/h 62 % 0 mm 0.0 W/m2 CLR
21:06 -12.8 °C -16.7 °C 34774.2 hPa NW 56.6 km/h 56.6 km/h 62 % 0 mm 0.0 W/m2 CLR
21:11 -12.8 °C -16.7 °C 34774.2 hPa NNW 44.7 km/h 44.7 km/h 62 % 0 mm 0.0 W/m2 CLR
21:16 -12.8 °C -16.7 °C 34784.4 hPa WNW 59.5 km/h 59.5 km/h 62 % 0 mm 0.0 W/m2 CLR
21:21 -13.2 °C -17 °C 34784.4 hPa NW 54.4 km/h 54.4 km/h 62 % 0 mm 0.0 W/m2 CLR
21:26 -13.2 °C -17 °C 34784.4 hPa NW 59.5 km/h 59.5 km/h 62 % 0 mm 0.0 W/m2 CLR
21:31 -13.2 °C -17 °C 34784.4 hPa NNW 59.5 km/h 59.5 km/h 62 % 0 mm 0.0 W/m2 CLR
21:36 -13.2 °C -17 °C 34784.4 hPa NNW 53.6 km/h 53.6 km/h 62 % 0 mm 0.0 W/m2 CLR
21:41 -13.2 °C -17 °C 34784.4 hPa WNW 59.5 km/h 59.5 km/h 62 % 0 mm 0.0 W/m2 CLR
21:46 -13.2 °C -17 °C 34784.4 hPa NW 50.7 km/h 50.7 km/h 62 % 0 mm 0.0 W/m2 CLR
21:51 -13.2 °C -17 °C 34784.4 hPa NW 53.6 km/h 53.6 km/h 62 % 0 mm 0.0 W/m2 CLR
21:56 -13.2 °C -17 °C 34797.9 hPa NW 53.6 km/h 53.6 km/h 62 % 0 mm 0.0 W/m2 CLR
22:01 -13.2 °C -17.1 °C 34797.9 hPa NNW 47.6 km/h 47.6 km/h 61 % 0 mm 0.0 W/m2 CLR
22:06 -13.2 °C -17.1 °C 34797.9 hPa NW 50.7 km/h 50.7 km/h 61 % 0 mm 0.0 W/m2 CLR
22:11 -13.2 °C -17.1 °C 34797.9 hPa NW 44.7 km/h 44.7 km/h 61 % 0 mm 0.0 W/m2 CLR
22:16 -13.2 °C -17.1 °C 34797.9 hPa NW 47.6 km/h 47.6 km/h 61 % 0 mm 0.0 W/m2 CLR
22:21 -13.2 °C -17.1 °C 34797.9 hPa NW 50.7 km/h 50.7 km/h 61 % 0 mm 0.0 W/m2 CLR
22:26 -13.2 °C -17.1 °C 34797.9 hPa NW 50.7 km/h 50.7 km/h 61 % 0 mm 0.0 W/m2 CLR
22:31 -13.4 °C -17.5 °C 34797.9 hPa NW 41.7 km/h 41.7 km/h 60 % 0 mm 0.0 W/m2 CLR
22:36 -13.4 °C -17.5 °C 34797.9 hPa NW 32.8 km/h 32.8 km/h 60 % 0 mm 0.0 W/m2 CLR
22:41 -13.4 °C -17.6 °C 34797.9 hPa NW 53.6 km/h 53.6 km/h 59 % 0 mm 0.0 W/m2 CLR
22:46 -13.2 °C -17.4 °C 34797.9 hPa NNW 47.6 km/h 47.6 km/h 58 % 0 mm 0.0 W/m2 CLR
22:47 -13.2 °C -17.4 °C 34797.9 hPa NW 44.7 km/h 44.7 km/h 58 % 0 mm 0.0 W/m2 CLR
22:52 -13.2 °C -17.4 °C 34797.9 hPa WNW 41.7 km/h 41.7 km/h 58 % 0 mm 0.0 W/m2 CLR
22:57 -13.2 °C -17.4 °C 34797.9 hPa NW 53.6 km/h 53.6 km/h 58 % 0 mm 0.0 W/m2 CLR
23:02 -13.2 °C -17.4 °C 34797.9 hPa NW 53.6 km/h 53.6 km/h 58 % 0 mm 0.0 W/m2 CLR
23:07 -13.4 °C -17.8 °C 34797.9 hPa NW 38.8 km/h 38.8 km/h 58 % 0 mm 0.0 W/m2 CLR
23:12 -13.4 °C -17.6 °C 34808.1 hPa NW 56.6 km/h 56.6 km/h 59 % 0 mm 0.0 W/m2 CLR
23:17 -13.4 °C -17.6 °C 34808.1 hPa North 50.7 km/h 50.7 km/h 59 % 0 mm 0.0 W/m2 CLR
23:22 -13.4 °C -17.6 °C 34808.1 hPa NNW 46.7 km/h 46.7 km/h 59 % 0 mm 0.0 W/m2 CLR
23:27 -13.4 °C -17.5 °C 34808.1 hPa NW 41.7 km/h 41.7 km/h 60 % 0 mm 0.0 W/m2 CLR
23:32 -13.4 °C -17.6 °C 34808.1 hPa NW 53.6 km/h 53.6 km/h 59 % 0 mm 0.0 W/m2 CLR
23:37 -13.4 °C -17.5 °C 34797.9 hPa NW 41.4 km/h 41.4 km/h 60 % 0 mm 0.0 W/m2 CLR
23:42 -13.4 °C -17.5 °C 34808.1 hPa NW 50.7 km/h 50.7 km/h 60 % 0 mm 0.0 W/m2 CLR
23:47 -13.4 °C -17.5 °C 34808.1 hPa WNW 41.7 km/h 41.7 km/h 60 % 0 mm 0.0 W/m2 CLR
23:52 -13.4 °C -17.6 °C 34808.1 hPa NW 50.7 km/h 50.7 km/h 59 % 0 mm 0.0 W/m2 CLR
23:57 -13.4 °C -17.6 °C 34808.1 hPa NW 50.7 km/h 50.7 km/h 59 % 0 mm 0.0 W/m2 CLR
Lo Temps de Massalio
Compliments of Weather Underground - 1.25 mb